Tracking 30986 objects as of 9-Jul-2025
HD Live streaming from Space Station
objects crossing your sky now

COSMOS 1691 DEB

Track COSMOS 1691 DEB now!
10-day predictions


NORAD ID: 43314
Int'l Code: 1985-094Y
Perigee: 1,330.7 km
Apogee: 1,377.1 km
Inclination: 82.6 °
Period: 112.6 minutes
Semi major axis: 7724 km
RCS: Unknown
Launch date: October 9, 1985
Source: Commonwealth of Independent States (former USSR) (CIS)
Launch site: PLESETSK MISSILE AND SPACE COMPLEX (PKMTR)

Note: This is SATELLITE DEBRIS
Your satellite tracking list
Your tracking list is empty




NASA's NSSDC Master Catalog

Two Line Element Set (TLE):
1 43314U 85094Y   25181.51751853  .00000316  00000-0  13662-2 0  9993
2 43314  82.5543 266.4294 0030063 337.8311  22.1487 12.78689439540869
Source of the keplerian elements: AFSPC